Home > Weather > Incheon > Past weeks

Flag for South Korea Weather for the Past 2 Weeks in Incheon, South Korea

Now
43 °F

Light rain. Fog.


Feels Like: 39 °F
Forecast: 39 / 49 °F
Wind: 7 mph from South

Location: Incheon International Airport

Current Time: Feb 12, 2016 at 11:02:17 AM

Latest Report: Feb 12, 2016 at 10:00 AM


Visibility: 1 mi

Pressure: 30.07 "Hg

Humidity: 93%

Dew point: 41 °F

Location of IncheonLocation

Historic Weather in Incheon — Graph

°F

Incheon Temperature Yesterday

Maximum temperature yesterday: 55 °F (at 2:00 PM)
Minimum temperature yesterday: 30 °F (at 2:30 AM)
Average temperature yesterday: 44 °F

High & Low Weather Summary for the Past Weeks

 TemperatureHumidityPressure
High55 °F (Feb 11, 2:00 PM)93% (Feb 12, 9:00 AM)30.45 "Hg (Feb 12, 9:00 AM)
Low16 °F (Feb 1, 5:00 AM)18% (Feb 10, 4:30 PM)29.86 "Hg (Feb 8, 6:30 PM)
Average31 °F51%30.27 "Hg
* Reported Jan 28 9:00 AM — Feb 12 9:30 AM, Incheon, Weather by CustomWeather, © 2016

Note: Actual official high and low records may vary slightly from our data, if they occured in-between our weather recording intervals... More about our weather records

Advertising

Incheon Weather History for the Previous 24 Hours

 ConditionsComfort  
Time TempWeatherWind HumidityBarometerVisibility
9:30 AM
Fri, Feb 12
43 °FQuite cool.9 mph93%30.07 "Hg1 mi
9:00 AM43 °FQuite cool.9 mph93%30.07 "Hg1 mi
8:30 AM45 °FQuite cool.10 mph87%30.07 "Hg1 mi
8:00 AM45 °FLight rain. Fog.7 mph87%30.07 "Hg1 mi
7:00 AM45 °FRain. Fog.7 mph81%30.04 "Hg2 mi
6:30 AM45 °FLight rain. Fog.15 mph81%30.04 "Hg2 mi
6:00 AM45 °FLight rain. Fog.16 mph81%30.04 "Hg3 mi
5:30 AM45 °FLight rain. Fog.15 mph81%30.04 "Hg3 mi
5:00 AM45 °FLight rain. Mostly cloudy.15 mph76%30.07 "Hg4 mi
4:30 AM45 °FLight rain. Fog.15 mph81%30.07 "Hg3 mi
4:00 AM45 °FLight rain. Fog.14 mph81%30.07 "Hg3 mi
3:30 AM45 °FRain. Fog.12 mph81%30.09 "Hg2 mi
3:00 AM45 °FRain. Fog.9 mph81%30.12 "Hg3 mi
2:30 AM46 °FLight rain. Fog.10 mph76%30.12 "Hg3 mi
2:00 AM46 °FRain. Fog.12 mph76%30.12 "Hg3 mi
1:30 AM46 °FLight rain. Fog.9 mph71%30.12 "Hg3 mi
1:00 AM46 °FLight rain. Fog.9 mph71%30.12 "Hg3 mi
12:30 AM45 °FLight rain. Fog.9 mph76%30.15 "Hg3 mi
12:00 AM45 °FLight rain. Mostly cloudy.10 mph76%30.15 "Hg4 mi
11:30 PM
Thu, Feb 11
45 °FLight rain. Mostly cloudy.15 mph71%30.15 "Hg4 mi
11:00 PM45 °FLight rain. Mostly cloudy.10 mph66%30.15 "Hg5 mi
10:30 PM46 °FLight rain. Mostly cloudy.7 mph62%30.15 "Hg5 mi
10:00 PM46 °FLight rain. Mostly cloudy.9 mph62%30.15 "Hg5 mi
9:30 PM48 °FLight rain. Mostly cloudy.8 mph43%30.15 "HgN/A
9:00 PM50 °FLight rain. Mostly cloudy.10 mph32%30.15 "HgN/A
8:30 PM52 °FMostly cloudy.12 mph28%30.15 "HgN/A
8:00 PM54 °FMostly cloudy.10 mph24%30.15 "HgN/A
7:30 PM54 °FMostly cloudy.10 mph24%30.15 "HgN/A
7:00 PM54 °FMostly cloudy.8 mph24%30.15 "HgN/A
6:30 PM54 °FBroken clouds.7 mph26%30.15 "HgN/A
6:00 PM54 °FBroken clouds.8 mph26%30.15 "HgN/A
5:30 PM54 °FBroken clouds.8 mph28%30.15 "HgN/A
5:00 PM55 °FBroken clouds.8 mph24%30.15 "HgN/A
4:30 PM55 °FBroken clouds.10 mph26%30.15 "HgN/A
4:00 PM55 °FBroken clouds.10 mph26%30.18 "HgN/A
3:30 PM55 °FBroken clouds.10 mph26%30.18 "HgN/A
3:00 PM55 °FBroken clouds.12 mph24%30.18 "HgN/A
2:30 PM55 °FBroken clouds.10 mph23%30.18 "HgN/A
2:00 PM55 °FBroken clouds.14 mph21%30.21 "HgN/A
1:30 PM54 °FBroken clouds.14 mph19%30.21 "HgN/A
1:00 PM54 °FBroken clouds.12 mph18%30.21 "HgN/A
12:30 PM52 °FBroken clouds.10 mph19%30.24 "HgN/A
11:30 AM50 °FBroken clouds.13 mph22%30.27 "HgN/A
11:00 AM48 °FBroken clouds.13 mph21%30.27 "HgN/A
Weather by CustomWeather, © 2016

See weather overviewHow to use our weather pages